This is the latest recevied weather packets stored in our database for station/object XE2KK-10. If no packets are shown the sender has not sent any weather packets the latest 10 day(s).
| Time | Temp. | Humidity | Pressure | Rain* | Wind** | Luminosity | Snow |
|---|---|---|---|---|---|---|---|
| 1777384152 | 25.56° C | 81% | 1013 hPa | 0 mm | - | 145 W/m² | - |
| 1777383852 | 25.56° C | 82% | 1013 hPa | 0 mm | - | 172 W/m² | - |
| 1777383553 | 25° C | 82% | 1013.1 hPa | 0 mm | - | 152 W/m² | - |
| 1777383253 | 25° C | 83% | 1012.8 hPa | 0 mm | - | 143 W/m² | - |
| 1777382953 | 24.44° C | 84% | 1013 hPa | 0 mm | - | 124 W/m² | - |
| 1777382686 | 24.44° C | 84% | 1012.8 hPa | 0 mm | - | 115 W/m² | - |
| 1777382653 | 24.44° C | 84% | 1012.8 hPa | 0 mm | - | 115 W/m² | - |
| 1777382352 | 25° C | 84% | 1012.7 hPa | 0 mm | - | 81 W/m² | - |
| 1777382052 | 24.44° C | 84% | 1012.7 hPa | 0 mm | - | 91 W/m² | - |
| 1777381753 | 24.44° C | 85% | 1012.8 hPa | 0 mm | - | 77 W/m² | - |
| 1777381669 | 24.44° C | 85% | 1012.7 hPa | 0 mm | - | 52 W/m² | - |
| 1777381509 | 24.44° C | 85% | 1012.7 hPa | 0 mm | - | 52 W/m² | - |
| 1777381453 | 24.44° C | 85% | 1012.7 hPa | 0 mm | - | 52 W/m² | - |
| 1777381153 | 24.44° C | 85% | 1012.5 hPa | 0 mm | - | 39 W/m² | - |
| 1777380853 | 24.44° C | 85% | 1012.4 hPa | 0 mm | - | 43 W/m² | - |
| 1777380613 | 24.44° C | 85% | 1012.6 hPa | 0 mm | - | 39 W/m² | - |
| 1777380552 | 24.44° C | 85% | 1012.6 hPa | 0 mm | - | 39 W/m² | - |
| 1777380252 | 24.44° C | 85% | 1012.4 hPa | 0 mm | - | 38 W/m² | - |
| 1777379985 | 23.89° C | 85% | 1012.3 hPa | 0 mm | - | 30 W/m² | - |
| 1777379953 | 23.89° C | 85% | 1012.3 hPa | 0 mm | - | 30 W/m² | - |
| 1777379653 | 23.89° C | 86% | 1012.2 hPa | 0 mm | - | 25 W/m² | - |
| 1777379353 | 23.89° C | 86% | 1012.2 hPa | 0 mm | - | 19 W/m² | - |
| 1777379053 | 23.89° C | 86% | 1011.8 hPa | 0 mm | - | 14 W/m² | - |
| 1777378752 | 23.89° C | 86% | 1012 hPa | 0 mm | - | 9 W/m² | - |
| 1777378452 | 23.89° C | 86% | 1011.9 hPa | 0 mm | - | 4 W/m² | - |
* Rain latest hour (hover to see other rain measurements)
** Current wind speed in m/s (hover to see current wind gust speed)